Albany, GA

8:03 AM EDT on May 25, 2017 (GMT -0400)
Southwest Georgia Regional

Weather History for KABY - November, 2013

Change the Weather History Date:

Tuesday, November 5, 2013

  Actual Average Record
Temperature  
Mean Temperature 62 °F 62 °F  
Max Temperature 72 °F 75 °F 87 °F (2003)
Min Temperature 52 °F 49 °F 25 °F (1991)
Degree Days  
Heating Degree Days 3 5  
Month to date heating degree days 20 23  
Since 1 July heating degree days 61 73  
Cooling Degree Days 0 2  
Month to date cooling degree days 6 10  
Year to date cooling degree days 2394 2513  
Growing Degree Days 11 (Base 50)    
Moisture  
Dew Point 43 °F    
Average Humidity 54    
Maximum Humidity 68    
Minimum Humidity 39    
Precipitation  
Precipitation T in 0.09 in 1.01 in (2002)
Month to date precipitation 0.98 0.44  
Year to date precipitation 43.87 42.07  
Sea Level Pressure  
Sea Level Pressure 30.34 in    
Wind  
Wind Speed 10 mph (NE)    
Max Wind Speed 18 mph    
Max Gust Speed 23 mph    
Visibility 10 miles    
Events      
T = Trace of Precipitation, MM = Missing Value Source: NWS Daily Summary

Daily Weather History Graph

Daily Weather History Graph

Search for Another Location

Airport or City:

Trip Planner

Search our weather history database for the weather conditions in past years. The results will help you decide how hot, cold, wet, or windy it might be!

Date:

Astronomy

Nov. 05, 2013 Rise Set
Actual Time 6:56 AM EST 5:44 PM EST
Civil Twilight 6:30 AM EST 6:09 PM EST
Nautical Twilight 6:01 AM EST 6:38 PM EST
Astronomical Twilight 5:33 AM EST 7:06 PM EST
Moon 9:05 AM EST (11/5) 7:49 PM EST (11/5)
Length of Visible Light 11h 38m
Length of Day
10h 47m
Waxing Crescent, 6% of the Moon is Illuminated
Nov 5
Waxing Crescent
Nov 10
First Quarter
Nov 17
Full
Nov 25
Last Quarter
Dec 2
New

Hourly Weather History & Observations

Time (EST) Temp. Dew Point Humidity Pressure Visibility Wind Dir Wind Speed Gust Speed Precip Events Conditions
12:53 AM 54.0 °F 37.0 °F 53% 30.37 in 10.0 mi ENE 10.4 mph - N/A   Clear
1:53 AM 55.9 °F 37.0 °F 49% 30.35 in 10.0 mi ENE 11.5 mph - N/A   Overcast
2:53 AM 55.0 °F 37.9 °F 53% 30.34 in 10.0 mi ENE 12.7 mph - N/A   Mostly Cloudy
3:53 AM 55.0 °F 39.0 °F 55% 30.35 in 10.0 mi ENE 13.8 mph - N/A   Overcast
4:53 AM 54.0 °F 41.0 °F 62% 30.36 in 10.0 mi ENE 13.8 mph - N/A   Overcast
5:53 AM 53.1 °F 41.0 °F 64% 30.38 in 10.0 mi NE 13.8 mph - N/A   Overcast
6:53 AM 53.1 °F 42.1 °F 66% 30.38 in 10.0 mi NNE 8.1 mph 17.3 mph N/A   Overcast
7:53 AM 52.0 °F 41.0 °F 66% 30.40 in 10.0 mi NE 11.5 mph - 0.00 in   Overcast
7:57 AM 51.8 °F 41.0 °F 67% 30.40 in 10.0 mi NE 12.7 mph - N/A   Overcast
7:58 AM 51.8 °F 41.0 °F 67% 30.40 in 10.0 mi NE 15.0 mph - N/A   Overcast
8:53 AM 53.1 °F 39.9 °F 61% 30.41 in 10.0 mi NE 10.4 mph - N/A   Overcast
9:53 AM 55.9 °F 39.0 °F 53% 30.40 in 10.0 mi NE 11.5 mph - N/A   Overcast
10:53 AM 61.0 °F 39.0 °F 44% 30.39 in 10.0 mi NNE 12.7 mph - N/A   Scattered Clouds
11:53 AM 62.1 °F 39.0 °F 43% 30.37 in 10.0 mi NE 10.4 mph - N/A   Overcast
12:53 PM 64.9 °F 41.0 °F 42% 30.34 in 10.0 mi ENE 12.7 mph - N/A   Overcast
1:53 PM 68.0 °F 43.0 °F 40% 30.31 in 10.0 mi ENE 12.7 mph - N/A   Overcast
2:53 PM 71.1 °F 46.9 °F 42% 30.29 in 10.0 mi NE 13.8 mph - N/A   Scattered Clouds
3:53 PM 71.1 °F 46.9 °F 42% 30.28 in 10.0 mi NE 13.8 mph - N/A   Clear
4:53 PM 68.0 °F 46.9 °F 47% 30.29 in 10.0 mi ENE 12.7 mph 19.6 mph N/A   Clear
5:53 PM 64.9 °F 46.0 °F 50% 30.29 in 10.0 mi NE 8.1 mph - N/A   Clear
6:53 PM 61.0 °F 46.9 °F 60% 30.30 in 10.0 mi ENE 6.9 mph - N/A   Clear
7:53 PM 63.0 °F 46.9 °F 56% 30.30 in 10.0 mi NE 5.8 mph - N/A   Overcast
8:53 PM 63.0 °F 48.0 °F 58% 30.30 in 10.0 mi NE 5.8 mph - N/A   Overcast
9:53 PM 63.0 °F 48.0 °F 58% 30.30 in 10.0 mi NE 4.6 mph - N/A   Overcast
10:53 PM 63.0 °F 48.9 °F 60% 30.29 in 10.0 mi NE 5.8 mph - N/A   Overcast
11:53 PM 62.1 °F 50.0 °F 65% 30.28 in 10.0 mi ENE 8.1 mph - N/A   Overcast